[[{"header":{"parameterUnit":"m.s-1","parameterCategory":1,"la1":30.2992,"la2":30.254,"lo1":-89.0895,"lo2":-89.0443,"dy":0.0025,"dx":0.0025,"nx":19,"ny":19,"refTime":"2026-05-13T09:00:00:Z","depth":0,"parameterNumber":2,"parameterNumberName":"U-component_of_WINDS"},"data":[0,0,0,1.4502,1.4505,1.4675,1.4676,1.4883,1.4885,0,0,0,0,0,0,0,0,0,0,0,1.4442,1.4443,1.4501,1.4505,1.4675,1.4676,1.4883,1.4885,0,0,0,0,0,0,0,0,0,0,0,1.4441,1.4443,1.4444,1.4506,1.4675,1.4676,1.4882,1.4758,0,0,0,0,0,0,0,0,0,0,1.4595,1.453,1.4442,1.4444,1.4507,1.4675,1.4676,1.4752,1.4766,1.4801,0,1.4826,0,1.4859,1.4898,1.4898,0,0,0,1.4513,1.4519,1.4573,1.4444,1.4508,1.4674,1.4601,1.476,1.4775,1.4818,1.4829,1.4837,1.4862,1.4899,1.49,1.5071,1.5071,0,0,1.4503,1.4468,1.4562,1.4582,1.4552,1.4595,1.4606,1.477,1.478,1.483,1.4842,1.4865,1.49,1.4902,1.507,1.5071,0,0,0,1.4471,1.4461,1.4511,1.4573,1.4605,1.46,1.4612,1.4773,1.4792,1.4845,1.4868,1.4901,1.4904,1.507,1.507,1.5058,0,0,0,1.4466,1.4442,1.4507,1.4487,1.4601,1.469,1.4611,1.4781,1.48,1.4867,1.4901,1.4905,1.5069,1.507,1.5057,1.5058,0,0,0,1.4434,1.4439,1.446,1.4485,1.4556,1.4688,1.4718,1.4786,1.4814,1.4898,1.4906,1.5069,1.507,1.5057,1.5057,1.5093,0,0,0,1.439,1.4445,1.4459,1.4531,1.4554,1.4679,1.4717,1.4812,1.4882,1.4902,1.5069,1.507,1.5056,1.5056,1.5092,1.5117,1.5124,0,0,1.444,1.445,1.4495,1.4513,1.4625,1.4656,1.4768,1.4867,1.4908,1.5015,1.502,1.5057,1.5057,1.5093,1.5175,1.518,0,0,0,1.4499,1.4531,1.4569,1.4634,1.4711,1.4778,1.4864,1.4902,1.4994,1.4955,1.5082,1.5082,1.5105,1.5119,1.5123,1.5146,1.5075,1.5075,1.5075,1.4517,1.4568,1.4647,1.4719,1.4783,1.4873,1.493,1.4997,1.5028,1.5058,1.5089,1.5133,1.5147,1.5151,1.5174,1.5107,1.5107,1.5107,1.5107,1.4596,1.4649,1.4694,1.4786,1.4841,1.492,1.5011,1.5032,1.5116,1.5112,1.5135,1.5126,1.5155,1.5178,1.5107,1.5107,1.5107,1.5107,1.5107,1.4613,1.4647,1.4693,1.4796,1.487,1.4943,1.5022,1.507,1.5115,1.5138,1.5178,1.5178,1.5185,1.5154,1.5154,1.5154,1.5154,1.5154,1.5155,1.4612,1.4664,1.4723,1.4813,1.4863,1.4936,1.5031,1.5083,1.5154,1.5182,1.5183,1.5213,1.5148,1.5131,1.5157,1.5157,1.5156,1.5156,1.5156,1.4671,1.4666,1.4758,1.4809,1.4921,1.4993,1.5055,1.5158,1.5208,1.5247,1.5275,1.5218,1.5232,1.5229,1.5215,1.5262,1.5262,1.5262,1.5262,1.4685,1.4697,1.4804,1.4883,1.4966,1.5032,1.5139,1.5216,1.5294,1.533,1.533,1.5316,1.5311,1.5328,1.5323,1.5311,1.5381,1.5381,1.5381,1.4725,1.4748,1.4827,1.4903,1.4996,1.5075,1.5178,1.527,1.5359,1.5387,1.5359,1.5354,1.5332,1.5322,1.5345,1.5336,1.5315,0,0]},{"header":{"parameterUnit":"m.s-1","parameterCategory":1,"la1":30.2992,"la2":30.254,"lo1":-89.0895,"lo2":-89.0443,"dy":0.0025,"dx":0.0025,"nx":19,"ny":19,"refTime":"2026-05-13T09:00:00:Z","depth":0,"parameterNumber":3,"parameterNumberName":"V-component_of_WINDS"},"data":[0,0,0,-0.9159,-0.9157,-0.9079,-0.9079,-0.8939,-0.8938,0,0,0,0,0,0,0,0,0,0,0,-0.9159,-0.9157,-0.9159,-0.9156,-0.9079,-0.9079,-0.894,-0.8938,0,0,0,0,0,0,0,0,0,0,0,-0.916,-0.9158,-0.9156,-0.9156,-0.9079,-0.9079,-0.894,-0.9012,0,0,0,0,0,0,0,0,0,0,-0.9094,-0.9072,-0.9158,-0.9155,-0.9155,-0.9079,-0.9079,-0.9017,-0.9008,-0.8958,0,-0.8909,0,-0.8921,-0.8926,-0.8926,0,0,0,-0.9172,-0.9079,-0.908,-0.9155,-0.9155,-0.9079,-0.9119,-0.9012,-0.9002,-0.8946,-0.8907,-0.8903,-0.8919,-0.8925,-0.8924,-0.8589,-0.8586,0,0,-0.9177,-0.9132,-0.9086,-0.9072,-0.9084,-0.9121,-0.9116,-0.9007,-0.896,-0.8907,-0.8901,-0.8917,-0.8924,-0.8923,-0.8591,-0.8588,0,0,0,-0.9178,-0.9134,-0.9138,-0.9077,-0.9066,-0.9118,-0.9113,-0.8965,-0.8971,-0.89,-0.8915,-0.8923,-0.8921,-0.8593,-0.859,-0.8432,0,0,0,-0.9182,-0.9135,-0.9139,-0.911,-0.9068,-0.9015,-0.9073,-0.8978,-0.8968,-0.8916,-0.8923,-0.8919,-0.8596,-0.8592,-0.8442,-0.8363,0,0,0,-0.9171,-0.9134,-0.9116,-0.9108,-0.9074,-0.9018,-0.9018,-0.8977,-0.8976,-0.8925,-0.8919,-0.8598,-0.8592,-0.8451,-0.8377,-0.8261,0,0,0,-0.9147,-0.8973,-0.9112,-0.8925,-0.9074,-0.8922,-0.9019,-0.8907,-0.8845,-0.8922,-0.8596,-0.859,-0.8453,-0.8387,-0.827,-0.8154,-0.8102,0,0,-0.8902,-0.8942,-0.8836,-0.8958,-0.877,-0.8938,-0.8727,-0.8711,-0.8746,-0.8639,-0.8631,-0.8438,-0.8379,-0.8263,-0.783,-0.7788,0,0,0,-0.8743,-0.8665,-0.8626,-0.8567,-0.8553,-0.8535,-0.8558,-0.8553,-0.8465,-0.8682,-0.8368,-0.8333,-0.8267,-0.8214,-0.8178,-0.8124,-0.8564,-0.8565,-0.8565,-0.8328,-0.8387,-0.8215,-0.8264,-0.8206,-0.8234,-0.8191,-0.8188,-0.8261,-0.8186,-0.8153,-0.7883,-0.7819,-0.7793,-0.7735,-0.8099,-0.8098,-0.8097,-0.8097,-0.7974,-0.7873,-0.798,-0.7851,-0.7913,-0.7805,-0.7826,-0.7882,-0.7789,-0.7912,-0.7857,-0.7984,-0.7745,-0.7698,-0.8086,-0.8088,-0.8089,-0.809,-0.8091,-0.7706,-0.7668,-0.7669,-0.7592,-0.7526,-0.7583,-0.7491,-0.7551,-0.7606,-0.7552,-0.7524,-0.7527,-0.7535,-0.7535,-0.7534,-0.7534,-0.7533,-0.7532,-0.7531,-0.7427,-0.7433,-0.7349,-0.7324,-0.7296,-0.7267,-0.7296,-0.727,-0.7255,-0.7306,-0.7306,-0.7385,-0.7713,-0.7792,-0.7517,-0.752,-0.7521,-0.7523,-0.7524,-0.704,-0.7139,-0.7008,-0.6981,-0.6959,-0.689,-0.6971,-0.6912,-0.6899,-0.6851,-0.6945,-0.7178,-0.7221,-0.725,-0.7316,-0.6934,-0.6934,-0.6934,-0.6934,-0.6812,-0.6843,-0.6725,-0.6677,-0.6638,-0.6699,-0.6549,-0.6572,-0.661,-0.6605,-0.6671,-0.6765,-0.6791,-0.6819,-0.6857,-0.6919,-0.6445,-0.6444,-0.6444,-0.6577,-0.6608,-0.6468,-0.6511,-0.65,-0.6488,-0.635,-0.6289,-0.6353,-0.6425,-0.6603,-0.6624,-0.6776,-0.6823,-0.6894,-0.6952,-0.7068,0,0]}]]